This is the latest recevied weather packets stored in our database for station/object VK4ZPK-13. If no packets are shown the sender has not sent any weather packets the latest 1 day(s).
| Time | Temp. | Humidity | Pressure | Rain* | Wind** | Luminosity | Snow |
|---|---|---|---|---|---|---|---|
| 1778015546 | 19.44° C | 97% | 1013.1 hPa | 0 mm | 0.89 m/s, 150° | - | - |
| 1778013746 | 19.44° C | 97% | 1012.9 hPa | 0 mm | 1.34 m/s, 166° | - | - |
| 1778011946 | 19.44° C | 97% | 1012.5 hPa | 0 mm | 1.34 m/s, 166° | - | - |
| 1778010146 | 19.44° C | 97% | 1012.2 hPa | 0 mm | 1.34 m/s, 150° | - | - |
| 1778008346 | 19.44° C | 96% | 1012.2 hPa | 0 mm | 1.34 m/s, 153° | - | - |
| 1778006546 | 19.44° C | 96% | 1011.8 hPa | 0 mm | 1.34 m/s, 160° | - | - |
| 1778004746 | 19.44° C | 96% | 1012.2 hPa | 0 mm | 0.89 m/s, 158° | - | - |
| 1778002946 | 20° C | 96% | 1012.4 hPa | 0 mm | 0.45 m/s, 171° | - | - |
| 1778001146 | 20° C | 96% | 1012.3 hPa | 0 mm | 0.45 m/s, 140° | - | - |
| 1777999346 | 20° C | 95% | 1012.7 hPa | 0 mm | 0.45 m/s, 193° | - | - |
| 1777997546 | 20° C | 95% | 1012.7 hPa | 0 mm | 0.45 m/s, 160° | - | - |
| 1777995746 | 20° C | 95% | 1012.9 hPa | 0 mm | 0.45 m/s, 158° | - | - |
| 1777993946 | 20° C | 95% | 1013.2 hPa | 0 mm | 0.45 m/s, 163° | - | - |
| 1777992146 | 20° C | 95% | 1013.3 hPa | 0 mm | 0.45 m/s, 141° | - | - |
| 1777990346 | 20° C | 94% | 1013.3 hPa | 0 mm | 0.89 m/s, 160° | - | - |
| 1777988546 | 20.56° C | 93% | 1013.8 hPa | 0 mm | 0.89 m/s, 167° | - | - |
| 1777986746 | 20.56° C | 93% | 1013.9 hPa | 0 mm | 0.45 m/s, 175° | - | - |
| 1777984946 | 21.11° C | 92% | 1014.1 hPa | 0 mm | 0.45 m/s, 184° | - | - |
| 1777983146 | 21.67° C | 93% | 1013.8 hPa | 0 mm | 0.45 m/s, 141° | - | - |
| 1777981346 | 21.67° C | 92% | 1013.8 hPa | 0 mm | 0.45 m/s, 110° | - | - |
| 1777979546 | 21.67° C | 91% | 1013.8 hPa | 0 mm | 0.45 m/s, 109° | - | - |
| 1777977746 | 21.67° C | 91% | 1013.8 hPa | 0 mm | 0.45 m/s, 123° | - | - |
| 1777975946 | 21.67° C | 90% | 1013.7 hPa | 0 mm | 0.45 m/s, 122° | - | - |
* Rain latest hour (hover to see other rain measurements)
** Current wind speed in m/s (hover to see current wind gust speed)